Weather in Andriievychi

Ukraine / Zhytomyr Region     50°44′04″N   27°53′23″E
temp.,
°C
wind,
m/s
gust,
m/s
humid.,
%
clouds,
%
prec.,
mm/h
press.,
hPa
HPBL,
m
15 may, sat
sat1500:00+12ssw3594100 1.1 1006148
03:00+11sw3695100 1.2 1006176
06:00+11wsw379594 0.1 1007207
09:00+12sw368868 0.1 1008341
12:00+16sw567494 0.1 10091074
15:00+16sw5675100 0.8 10091032
18:00+16w457498 0.3 1010893
21:00+13wsw2488100 0.4 101083
16 may, sun
sun1600:00+12sw229060 0.1 101144
03:00+10sw22940 0.1 101224
06:00+9ssw22925 0.0 101215
09:00+15sse347752 0.0 1012388
12:00+19sse456246 0.0 10111074
15:00+21sse576095 1.0 10101569
18:00+19sse5870100 1.4 1009650
21:00+15se41085100 2.8 1009151
17 may, mon
mon1700:00+13se4789100 0.1 1008102
03:00+12s4993100 0.4 1008192
06:00+12sw1295100 0.2 100719
09:00+16nnw1183100 0.2 1007297
12:00+16nw2382100 1.9 1006122
15:00+15ese4691100 3.1 1005254
18:00+16se2281100 0.2 1004516
21:00+13se119272 0.3 100311
18 may, tue
tue1800:00+12s229582 0.2 100426
03:00+11w3395100 0.4 100340
06:00+10w379794 0.1 1003189
09:00+12wnw5793100 0.3 1004490
12:00+11wnw51195100 2.1 1006644
15:00+14wnw6880100 3.9 1007885
18:00+15wnw597524 0.2 10071168
21:00+11w47864 0.3 1008106
19 may, wed
wed1900:00+9w389453 0.0 1010132
03:00+8w379595 0.0 1010139
06:00+7w3896100 0.0 1011179
09:00+12wnw4681100 0.0 1011484
12:00+16wnw356275 0.3 10121489
15:00+16wnw455670 0.7 10111533
18:00+16w356489 0.1 1011708
21:00+11nnw33775 0.1 101240